铱星星座 125星 (IRIDIUM 125)

导读

IRIDIUM 125是美国于2017年10月9日发射的铱星系统卫星,属于第二代铱星星座的组成部分,主要用于提供全球范围的卫星通信服务,可为个人、海事、航空等领域用户提供可靠的语音通信、数据传输支持,该卫星发射后进入近地轨道工作,进一步完善了铱星系统的全球通信覆盖能力。

基本信息
目录编号:
42964
目录名称:
IRIDIUM 125
国际标识:
2017-061K
轨道中心:
EARTH
卫星名称:
铱星星座 125星
卫星全名:
铱星星座 125星 (IRIDIUM 125)
卫星状态:
在轨 (已飞行3169 天)
发射日期:
2017-10-09 UTC
国别 :
美国 (US)
星等 :
--
轨道信息
数据来源 国际轨道数据 AOE轨道数据
星历时间 2026-06-13T04:26:35+0800
6小时前
查看轨道信息
2026-06-07T00:00:00+0800
6天前
查看轨道信息
半长轴 7155.805km 7155.805km
偏心率 0.0002333 0.0002316
轨道倾角 86.398° 86.397°
近地点辐角 74.055° 83.471°
升交点赤经 27.193° 29.779°
平近点角 286.091° 41.928°
近地点 775.998km 776.01km
远地点 779.338km 779.326km
周期 100.403分钟 100.403分钟
每日圈数 14.342177 14.342176
详细信息
平衡模式:
三轴稳定
覆盖范围:
全球
运营商:
铱星通信公司
运营商所在国:
美国
制造商(研发单位):
阿莱尼亚宇航公司
制造商所在国:
意大利
使用方式:
暂无
卫星简介
铱星(Iridium)是由共66个运作中的通信卫星组成的卫星通信系统。这个系统原本规划77个通信卫星,所以用原子序数为77的铱元素来命名。铱卫星允许人们使用手持型电子设备进行全球性的语音及数据通讯。该卫星仍在工作。
2D轨道图
3D轨道图
轨道高度分析图
轨道倾角分析图
轨道综合分析图
查看轨道综合分析图